McCall, ID

8:50 PM MDT on July 27, 2017 (GMT -0600)
McCall

Weather History for KMYL - September, 2011

Change the Weather History Date:

Friday, September 30, 2011

  Actual Average Record
Temperature  
Mean Temperature 61 °F 45 °F  
Max Temperature 82 °F 62 °F 85 °F (1963)
Min Temperature 40 °F 28 °F 18 °F (1954)
Degree Days  
Heating Degree Days 4 20  
Month to date heating degree days 193 436  
Since 1 July heating degree days 347 765  
Cooling Degree Days 0 0  
Month to date cooling degree days 2 0  
Year to date cooling degree days 56 25  
Growing Degree Days 12 (Base 50)    
Moisture  
Dew Point 37 °F    
Average Humidity 52    
Maximum Humidity 86    
Minimum Humidity 17    
Precipitation  
Precipitation 0.00 in 0.03 in 1.77 in (1967)
Month to date precipitation 0.43 0.88  
Year to date precipitation 19.17 13.92  
Sea Level Pressure  
Sea Level Pressure 29.96 in    
Wind  
Wind Speed 2 mph (SSE)    
Max Wind Speed 14 mph    
Max Gust Speed 17 mph    
Visibility 10 miles    
Events      
T = Trace of Precipitation, MM = Missing Value Source: NWS Daily Summary

Daily Weather History Graph

Daily Weather History Graph

Search for Another Location

Airport or City:

Trip Planner

Search our weather history database for the weather conditions in past years. The results will help you decide how hot, cold, wet, or windy it might be!

Date:

Astronomy

Sep. 30, 2011 Rise Set
Actual Time 7:40 AM MDT 7:27 PM MDT
Civil Twilight 7:11 AM MDT 7:56 PM MDT
Nautical Twilight 6:37 AM MDT 8:30 PM MDT
Astronomical Twilight 6:03 AM MDT 9:04 PM MDT
Moon 11:57 AM MDT (9/30) 9:18 PM MDT (9/30)
Length of Visible Light 12h 44m
Length of Day
11h 46m
Waxing Crescent, 15% of the Moon is Illuminated
Sep 30
Waxing Crescent
Oct 3
First Quarter
Oct 11
Full
Oct 19
Last Quarter
Oct 26
New

Hourly Weather History & Observations

Time (MDT) Temp. Dew Point Humidity Pressure Visibility Wind Dir Wind Speed Gust Speed Precip Events Conditions
12:51 AM 48.9 °F 37.0 °F 64% 30.03 in 10.0 mi Calm Calm - N/A   Clear
2:51 AM 48.9 °F 39.0 °F 69% 30.00 in 10.0 mi Calm Calm - N/A   Scattered Clouds
3:51 AM 46.9 °F 37.9 °F 71% 30.01 in 10.0 mi Calm Calm - N/A   Clear
4:51 AM 45.0 °F 37.0 °F 74% 30.01 in 10.0 mi Calm Calm - N/A   Clear
5:51 AM 43.0 °F 36.0 °F 76% 30.02 in 10.0 mi Calm Calm - N/A   Clear
8:51 AM 46.0 °F 37.9 °F 73% 30.07 in 10.0 mi Calm Calm - N/A   Clear
9:51 AM 51.1 °F 42.1 °F 71% 30.06 in 10.0 mi Calm Calm - N/A   Clear
10:51 AM 57.9 °F 39.9 °F 51% 30.06 in 10.0 mi Calm Calm - N/A   Clear
12:51 PM 73.0 °F 37.0 °F 27% 30.01 in 10.0 mi Calm Calm - N/A   Partly Cloudy
1:51 PM 75.0 °F 35.1 °F 23% 29.99 in 10.0 mi Variable 3.5 mph - N/A   Scattered Clouds
2:51 PM 77.0 °F 34.0 °F 21% 29.95 in 10.0 mi Variable 3.5 mph - N/A   Clear
3:51 PM 79.0 °F 32.0 °F 18% 29.92 in 10.0 mi Variable 6.9 mph - N/A   Clear
4:51 PM 80.1 °F 32.0 °F 17% 29.90 in 10.0 mi South 11.5 mph 16.1 mph N/A   Clear
5:51 PM 80.1 °F 33.1 °F 18% 29.89 in 10.0 mi South 9.2 mph - N/A   Clear
6:51 PM 77.0 °F 36.0 °F 23% 29.88 in 10.0 mi SSE 3.5 mph - N/A   Clear
7:51 PM 68.0 °F 37.0 °F 32% 29.89 in 10.0 mi Calm Calm - N/A   Clear
8:51 PM 62.1 °F 37.0 °F 39% 29.90 in 10.0 mi Calm Calm - N/A   Clear
9:51 PM 57.9 °F 37.9 °F 47% 29.89 in 10.0 mi Calm Calm - N/A   Clear
10:51 PM 54.0 °F 37.0 °F 53% 29.89 in 10.0 mi Calm Calm - N/A   Clear
11:51 PM 53.1 °F 39.0 °F 59% 29.86 in 10.0 mi NNE 3.5 mph - N/A   Clear